Date String (YYYY-MM-DD hh:mm:ss) UTC,Instrument flags,Ambient pressure (hPa),Sample flow (lpm),Bypass flow (lpm),Sample temperature (°C),Ambient temperature (°C),ASC tube jacket temperature (°C),LED temperature (°C),Box temperature (°C),Sample RH (%),Span deviation,Mass concentration (μg/m³),Mass concentration (μg/m³),Mass concentration (μg/m³)
DateTimeUTC,F1_M11,P_M11,Q1_M11,Q2_M11,T1_M11,T2_M11,T3_M11,T4_M11,T5_M11,U1_M11,ZSPAN_M11,X0_M11,X2_M11,X1_M11
2023-02-15 05:00:00,,0814.3,4.99,0.00,22.8,21.7,00.0,31.6,24.5,09.3,0000.0,0005.30,0001.57,0001.25
2023-02-15 05:01:00,,0814.3,5.02,0.00,22.8,21.4,00.0,31.6,24.4,09.4,0000.0,0005.18,0001.55,0001.25
2023-02-15 05:02:00,,0814.4,5.00,0.00,22.7,21.1,00.0,31.6,24.3,09.5,0000.0,0004.88,0001.56,0001.26
2023-02-15 05:03:00,,0814.4,5.01,0.00,22.7,21.0,00.0,31.6,24.3,09.5,0000.0,0004.93,0001.61,0001.28
2023-02-15 05:04:00,,0814.5,5.01,0.00,22.7,20.9,00.0,31.6,24.3,09.6,0000.0,0005.08,0001.67,0001.29
2023-02-15 05:05:00,,0814.5,5.01,0.00,22.6,20.8,00.0,31.6,24.2,09.5,0000.0,0005.08,0001.70,0001.31
2023-02-15 05:06:00,,0814.8,5.02,0.00,22.6,21.5,00.0,31.6,24.4,09.5,0000.0,0004.74,0001.72,0001.31
2023-02-15 05:07:00,,0814.7,4.99,0.00,22.8,22.5,00.0,31.5,24.7,09.5,0000.0,0004.11,0001.75,0001.33
2023-02-15 05:08:00,,0814.7,5.00,0.00,22.9,23.2,00.0,31.6,24.9,09.5,0000.0,0003.82,0001.73,0001.34
2023-02-15 05:09:00,,0815.0,4.99,0.00,22.9,22.7,00.0,31.6,24.8,09.5,0000.0,0004.18,0001.77,0001.37
2023-02-15 05:10:00,,0815.0,5.01,0.00,22.9,22.2,00.0,31.6,24.7,09.6,0000.0,0005.45,0001.86,0001.40
2023-02-15 05:11:00,,0815.1,5.00,0.00,22.9,21.9,00.0,31.7,24.6,09.6,0000.0,0005.49,0001.93,0001.43
2023-02-15 05:12:00,,0815.1,5.01,0.00,22.8,21.6,00.0,31.7,24.6,09.6,0000.0,0005.51,0001.97,0001.46
2023-02-15 05:13:00,,0815.0,4.99,0.00,22.8,21.3,00.0,31.7,24.5,09.6,0000.0,0005.64,0002.05,0001.49
2023-02-15 05:14:00,,0815.0,5.00,0.00,22.8,21.1,00.0,31.7,24.4,09.6,0000.0,0005.67,0002.07,0001.52
2023-02-15 05:15:00,,0814.8,5.02,0.00,22.7,21.0,00.0,31.6,24.4,09.6,0000.0,0005.60,0002.06,0001.55
2023-02-15 05:16:00,,0814.9,5.01,0.00,22.7,20.8,00.0,31.6,24.3,09.7,0000.0,0005.50,0002.02,0001.56
2023-02-15 05:17:00,,0814.5,5.01,0.00,22.7,21.3,00.0,31.6,24.4,09.7,0000.0,0005.23,0001.99,0001.58
2023-02-15 05:18:00,,0814.6,4.98,0.00,22.8,22.5,00.0,31.6,24.7,09.7,0000.0,0004.28,0001.99,0001.60
2023-02-15 05:19:00,,0814.9,5.01,0.00,22.9,23.2,00.0,31.6,24.9,09.7,0000.0,0004.43,0002.05,0001.63
2023-02-15 05:20:00,,0814.6,5.01,0.00,22.9,22.9,00.0,31.6,24.9,09.7,0000.0,0004.17,0002.08,0001.65
2023-02-15 05:21:00,,0814.6,5.01,0.00,22.9,22.5,00.0,31.7,24.8,09.7,0000.0,0002.99,0002.05,0001.67
2023-02-15 05:22:00,,0814.6,4.99,0.00,22.9,22.0,00.0,31.7,24.6,09.7,0000.0,0002.94,0002.02,0001.68
2023-02-15 05:23:00,,0814.5,5.02,0.00,22.9,21.7,00.0,31.7,24.6,09.7,0000.0,0003.04,0002.02,0001.69
2023-02-15 05:24:00,,0814.8,4.98,0.00,22.8,21.5,00.0,31.7,24.5,09.7,0000.0,0003.22,0002.00,0001.69
2023-02-15 05:25:00,,0814.5,5.00,0.00,22.8,21.2,00.0,31.7,24.5,09.7,0000.0,0003.19,0002.00,0001.69
2023-02-15 05:26:00,,0814.6,5.00,0.00,22.8,21.0,00.0,31.7,24.4,09.8,0000.0,0003.59,0002.03,0001.69
2023-02-15 05:27:00,,0814.5,5.02,0.00,22.7,20.9,00.0,31.7,24.4,09.8,0000.0,0003.87,0002.06,0001.69
2023-02-15 05:28:00,,0814.8,5.02,0.00,22.7,20.9,00.0,31.7,24.3,09.9,0000.0,0003.88,0002.07,0001.70
2023-02-15 05:29:00,,0814.9,5.02,0.00,22.7,21.7,00.0,31.6,24.5,09.9,0000.0,0004.91,0002.06,0001.70
2023-02-15 05:30:00,,0815.1,5.00,0.00,22.8,22.7,00.0,31.6,24.8,09.9,0000.0,0005.46,0002.04,0001.69
2023-02-15 05:31:00,,0815.0,5.04,0.00,22.9,23.3,00.0,31.6,24.9,09.8,0000.0,0005.52,0002.07,0001.69
2023-02-15 05:32:00,,0815.1,5.05,0.00,23.0,22.8,00.0,31.7,24.9,09.8,0000.0,0005.58,0002.07,0001.68
2023-02-15 05:33:00,,0815.2,4.99,0.00,23.0,22.3,00.0,31.7,24.8,09.8,0000.0,0005.52,0002.05,0001.68
2023-02-15 05:34:00,,0815.2,4.98,0.00,22.9,21.9,00.0,31.7,24.7,09.8,0000.0,0005.52,0002.05,0001.68
2023-02-15 05:35:00,,0815.0,5.03,0.00,22.9,21.6,00.0,31.7,24.6,09.8,0000.0,0005.23,0002.05,0001.68
2023-02-15 05:36:00,,0814.9,4.99,0.00,22.8,21.3,00.0,31.7,24.5,09.9,0000.0,0005.16,0002.03,0001.68
2023-02-15 05:37:00,,0814.6,5.01,0.00,22.8,21.1,00.0,31.7,24.4,10.0,0000.0,0004.91,0002.03,0001.69
2023-02-15 05:38:00,,0815.1,4.98,0.00,22.8,20.9,00.0,31.7,24.4,10.0,0000.0,0004.50,0002.01,0001.70
2023-02-15 05:39:00,,0814.7,5.01,0.00,22.7,21.0,00.0,31.7,24.4,10.1,0000.0,0004.68,0002.06,0001.72
2023-02-15 05:40:00,,0815.0,5.02,0.00,22.8,22.1,00.0,31.6,24.7,10.1,0000.0,0003.91,0002.08,0001.73
2023-02-15 05:41:00,,0814.8,4.96,0.00,22.9,23.1,00.0,31.6,24.9,10.1,0000.0,0003.84,0002.09,0001.74
2023-02-15 05:42:00,,0814.9,5.00,0.00,23.0,23.2,00.0,31.7,25.0,10.1,0000.0,0004.13,0002.09,0001.76
2023-02-15 05:43:00,,0814.9,5.01,0.00,23.0,22.6,00.0,31.7,24.9,10.1,0000.0,0004.02,0002.09,0001.77
2023-02-15 05:44:00,,0814.9,4.99,0.00,23.0,22.2,00.0,31.7,24.8,10.2,0000.0,0004.05,0002.12,0001.80
2023-02-15 05:45:00,,0814.9,5.01,0.00,22.9,21.8,00.0,31.8,24.7,10.3,0000.0,0004.12,0002.17,0001.81
2023-02-15 05:46:00,,0814.9,4.99,0.00,22.9,21.5,00.0,31.8,24.6,10.4,0000.0,0004.15,0002.20,0001.83
2023-02-15 05:47:00,,0814.9,4.99,0.00,22.8,21.3,00.0,31.8,24.5,10.4,0000.0,0004.32,0002.24,0001.85
2023-02-15 05:48:00,,0814.9,5.00,0.00,22.8,21.1,00.0,31.8,24.5,10.4,0000.0,0004.31,0002.22,0001.86
2023-02-15 05:49:00,,0814.9,5.01,0.00,22.8,21.0,00.0,31.7,24.4,10.5,0000.0,0004.32,0002.24,0001.87
2023-02-15 05:50:00,,0814.9,5.01,0.00,22.7,21.3,00.0,31.7,24.5,10.6,0000.0,0004.15,0002.20,0001.87
2023-02-15 05:51:00,,0815.0,4.93,0.00,22.8,22.4,00.0,31.7,24.8,10.7,0000.0,0004.08,0002.21,0001.90
2023-02-15 05:52:00,,0815.1,5.05,0.00,23.0,23.3,00.0,31.7,25.0,10.7,0000.0,0003.64,0002.25,0001.92
2023-02-15 05:53:00,,0815.1,4.98,0.00,23.0,23.0,00.0,31.7,24.9,10.7,0000.0,0003.20,0002.27,0001.95
2023-02-15 05:54:00,,0815.2,5.04,0.00,23.0,22.5,00.0,31.8,24.8,10.8,0000.0,0003.25,0002.32,0001.97
2023-02-15 05:55:00,,0815.1,5.00,0.00,23.0,22.1,00.0,31.8,24.7,10.8,0000.0,0003.28,0002.35,0001.98
2023-02-15 05:56:00,,0815.1,5.01,0.00,22.9,21.7,00.0,31.8,24.6,10.9,0000.0,0003.21,0002.33,0002.00
2023-02-15 05:57:00,,0815.3,5.03,0.00,22.9,21.4,00.0,31.8,24.6,10.9,0000.0,0003.08,0002.31,0002.01
2023-02-15 05:58:00,,0815.2,4.99,0.00,22.9,21.2,00.0,31.8,24.5,10.9,0000.0,0002.95,0002.30,0002.03
2023-02-15 05:59:00,,0815.3,5.00,0.00,22.8,21.0,00.0,31.8,24.4,11.0,0000.0,0002.92,0002.33,0002.06
